Location: Unspecified
(64.9000°N, 0.0000°E)
Time: 12:47:42
(UTC+00:00)

Transit 2A Rocket - Pass Details

Date: 18 June 2019
Orbit: 590 x 913 km, 66.7° (Epoch: 16 August)

Event Time Altitude Azimuth Distance (km) Brightness Sun altitude
Rises 20:13:20 0° 307° (NW) 3,400 10.9 8.5°
Reaches altitude 10° 20:16:33 10° 290° (WNW) 2,402 9.3 8.2°
Maximum altitude 20:20:14 19° 248° (WSW) 1,797 7.4 7.9°
Drops below altitude 10° 20:23:43 10° 205° (SSW) 2,244 7.3 7.6°
Sets 20:26:36 0° 187° (S) 3,097 7.8 7.4°
